Dades meteomassalio
Diari Summary for Abril 21, 2017 Units:  Metric    English   Both
« Previous Day
Next Day »
Diari Semanal Mensual Anual Personalitzat
  Maxima: Minima: Mijana:
Temperatura: -17.8 °C -17 °C -11.8 °C
Rosada: -17.8 °C -19.2 °C -17.3 °C
Humitat: Humidity % 24 % 55 %
Velocitat del vent: 0 km/h 0 km/h 12.9 km/h
Racha vent: 0 km/h - -
Vent:- - SE
Pressio: 0 hPa 34740.4 hPa -
Pluja: 0 mm    
Historical Graphs
 
 
Tabular Data for Abril 21, 2017
Time Temperature Dew Point Pressure Wind Wind Speed Wind Gust Humidity Rainfall Rate (Hourly) solar Conditions
-17.8 °C -17.8 °C 0 hPa Calm     Humidity % 0 mm SolarRadiationWatts/m^2 W/m2 Conditions
00:00 -13.9 °C -16.5 °C 34774.2 hPa Calm     72 % 0 mm 0.0 W/m2 CLR
00:05 -14 °C -16.7 °C 34774.2 hPa Calm     71 % 0 mm 0.0 W/m2 CLR
00:10 -14.1 °C -16.8 °C 34784.4 hPa Calm     71 % 0 mm 0.0 W/m2 CLR
00:15 -14.2 °C -16.9 °C 34784.4 hPa Calm     71 % 0 mm 0.0 W/m2 CLR
00:20 -14.2 °C -16.8 °C 34784.4 hPa Calm     72 % 0 mm 0.0 W/m2 CLR
00:25 -14.3 °C -16.8 °C 34784.4 hPa Calm     73 % 0 mm 0.0 W/m2 CLR
00:30 -14.3 °C -16.8 °C 34784.4 hPa Calm     73 % 0 mm 0.0 W/m2 CLR
00:35 -14.4 °C -16.9 °C 34784.4 hPa Calm     73 % 0 mm 0.0 W/m2 CLR
00:40 -14.5 °C -17 °C 34797.9 hPa Calm     73 % 0 mm 0.0 W/m2 CLR
00:45 -14.6 °C -17.1 °C 34797.9 hPa Calm     73 % 0 mm 0.0 W/m2 CLR
00:50 -14.7 °C -17 °C 34797.9 hPa Calm     75 % 0 mm 0.0 W/m2 CLR
00:55 -14.8 °C -17.1 °C 34797.9 hPa Calm     75 % 0 mm 0.0 W/m2 CLR
01:00 -14.8 °C -17 °C 34797.9 hPa Calm     76 % 0 mm 0.0 W/m2 CLR
01:05 -14.8 °C -17 °C 34797.9 hPa Calm     76 % 0 mm 0.0 W/m2 CLR
01:10 -14.8 °C -17 °C 34797.9 hPa Calm     76 % 0 mm 0.0 W/m2 CLR
01:15 -14.9 °C -17.1 °C 34797.9 hPa Calm     76 % 0 mm 0.0 W/m2 CLR
01:20 -14.9 °C -17.1 °C 34797.9 hPa Calm     76 % 0 mm 0.0 W/m2 CLR
01:25 -15.1 °C -17.3 °C 34797.9 hPa Calm     75 % 0 mm 0.0 W/m2 CLR
01:30 -15.1 °C -17.3 °C 34797.9 hPa Calm     76 % 0 mm 0.0 W/m2 CLR
01:31 -15.1 °C -17.3 °C 34797.9 hPa Calm     76 % 0 mm 0.0 W/m2 CLR
01:36 -15.2 °C -17.3 °C 34797.9 hPa Calm     76 % 0 mm 0.0 W/m2 CLR
01:41 -15.3 °C -17.3 °C 34797.9 hPa Calm     77 % 0 mm 0.0 W/m2 CLR
01:46 -15.4 °C -17.4 °C 34797.9 hPa Calm     77 % 0 mm 0.0 W/m2 CLR
01:51 -15.4 °C -17.3 °C 34808.1 hPa Calm     78 % 0 mm 0.0 W/m2 CLR
01:56 -15.4 °C -17.4 °C 34808.1 hPa Calm     78 % 0 mm 0.0 W/m2 CLR
02:01 -15.4 °C -17.3 °C 34808.1 hPa Calm     79 % 0 mm 0.0 W/m2 CLR
02:06 -15.6 °C -17.4 °C 34808.1 hPa Calm     79 % 0 mm 0.0 W/m2 CLR
02:07 -15.6 °C -17.4 °C 34808.1 hPa Calm     79 % 0 mm 0.0 W/m2 CLR
02:11 -15.6 °C -17.4 °C 34808.1 hPa Calm     79 % 0 mm 0.0 W/m2 CLR
02:16 -15.7 °C -17.4 °C 34808.1 hPa Calm     80 % 0 mm 0.0 W/m2 CLR
02:21 -15.7 °C -17.4 °C 34808.1 hPa Calm     80 % 0 mm 0.0 W/m2 CLR
02:26 -15.7 °C -17.4 °C 34808.1 hPa Calm     80 % 0 mm 0.0 W/m2 CLR
02:31 -15.8 °C -17.6 °C 34808.1 hPa Calm     80 % 0 mm 0.0 W/m2 CLR
02:36 -15.8 °C -17.4 °C 34808.1 hPa Calm     81 % 0 mm 0.0 W/m2 CLR
02:41 -15.9 °C -17.6 °C 34808.1 hPa Calm     80 % 0 mm 0.0 W/m2 CLR
02:46 -15.9 °C -17.6 °C 34797.9 hPa Calm     81 % 0 mm 0.0 W/m2 CLR
02:51 -15.9 °C -17.6 °C 34797.9 hPa Calm     81 % 0 mm 0.0 W/m2 CLR
02:56 -16 °C -17.7 °C 34797.9 hPa Calm     81 % 0 mm 0.0 W/m2 CLR
03:01 -16.1 °C -17.7 °C 34797.9 hPa Calm     81 % 0 mm 0.0 W/m2 CLR
03:06 -16.2 °C -17.7 °C 34797.9 hPa Calm     82 % 0 mm 0.0 W/m2 CLR
03:11 -16.2 °C -17.8 °C 34797.9 hPa Calm     81 % 0 mm 0.0 W/m2 CLR
03:16 -16.3 °C -17.8 °C 34797.9 hPa Calm     82 % 0 mm 0.0 W/m2 CLR
03:21 -16.3 °C -17.8 °C 34797.9 hPa Calm     82 % 0 mm 0.0 W/m2 CLR
03:26 -16.3 °C -17.8 °C 34797.9 hPa Calm     82 % 0 mm 0.0 W/m2 CLR
03:31 -16.3 °C -17.8 °C 34797.9 hPa Calm     83 % 0 mm 0.0 W/m2 CLR
03:36 -16.3 °C -17.8 °C 34797.9 hPa Calm     83 % 0 mm 0.0 W/m2 CLR
03:41 -16.3 °C -17.8 °C 34797.9 hPa Calm     83 % 0 mm 0.0 W/m2 CLR
03:46 -16.3 °C -17.8 °C 34797.9 hPa Calm     83 % 0 mm 0.0 W/m2 CLR
03:51 -16.3 °C -17.7 °C 34797.9 hPa Calm     83 % 0 mm 0.0 W/m2 CLR
03:56 -16.2 °C -17.7 °C 34797.9 hPa Calm     83 % 0 mm 0.0 W/m2 CLR
04:01 -16.2 °C -17.7 °C 34797.9 hPa Calm     83 % 0 mm 0.0 W/m2 CLR
04:07 -16.2 °C -17.6 °C 34797.9 hPa Calm     83 % 0 mm 0.0 W/m2 CLR
04:12 -16.2 °C -17.7 °C 34797.9 hPa Calm     83 % 0 mm 0.0 W/m2 CLR
04:17 -16.2 °C -17.7 °C 34797.9 hPa Calm     83 % 0 mm 0.0 W/m2 CLR
04:22 -16.2 °C -17.7 °C 34797.9 hPa Calm     83 % 0 mm 0.0 W/m2 CLR
04:27 -16.2 °C -17.6 °C 34797.9 hPa Calm     84 % 0 mm 0.0 W/m2 CLR
04:32 -16.1 °C -17.4 °C 34797.9 hPa Calm     84 % 0 mm 0.0 W/m2 CLR
04:37 -16.1 °C -17.6 °C 34797.9 hPa Calm     83 % 0 mm 0.0 W/m2 CLR
04:42 -16.1 °C -17.5 °C 34797.9 hPa Calm     83 % 0 mm 0.0 W/m2 CLR
04:47 -16 °C -17.4 °C 34797.9 hPa Calm     83 % 0 mm 0.0 W/m2 CLR
04:52 -16 °C -17.4 °C 34797.9 hPa Calm     83 % 0 mm 0.0 W/m2 CLR
04:57 -16 °C -17.3 °C 34797.9 hPa Calm     84 % 0 mm 0.0 W/m2 CLR
05:02 -15.9 °C -17.4 °C 34797.9 hPa Calm     83 % 0 mm 0.0 W/m2 CLR
05:07 -15.8 °C -17.3 °C 34797.9 hPa Calm     83 % 0 mm 0.0 W/m2 CLR
05:12 -15.8 °C -17.3 °C 34797.9 hPa Calm     83 % 0 mm 0.0 W/m2 CLR
05:17 -15.7 °C -17.2 °C 34797.9 hPa Calm     83 % 0 mm 0.0 W/m2 CLR
05:22 -15.7 °C -17.1 °C 34797.9 hPa Calm     83 % 0 mm 0.0 W/m2 CLR
05:27 -15.7 °C -17.3 °C 34797.9 hPa Calm     82 % 0 mm 0.0 W/m2 CLR
05:32 -15.7 °C -17.3 °C 34797.9 hPa Calm     82 % 0 mm 0.0 W/m2 CLR
05:37 -15.8 °C -17.4 °C 34797.9 hPa Calm     82 % 0 mm 0.0 W/m2 CLR
05:42 -15.9 °C -17.4 °C 34797.9 hPa Calm     82 % 0 mm 0.0 W/m2 CLR
05:47 -16 °C -17.6 °C 34797.9 hPa Calm     82 % 0 mm 0.0 W/m2 CLR
05:52 -16.1 °C -17.6 °C 34797.9 hPa Calm     83 % 0 mm 0.0 W/m2 CLR
05:57 -16.2 °C -17.6 °C 34797.9 hPa Calm     83 % 0 mm 0.0 W/m2 CLR
06:02 -16.2 °C -17.7 °C 34797.9 hPa Calm     83 % 0 mm 0.0 W/m2 CLR
06:07 -16.3 °C -17.6 °C 34797.9 hPa Calm     84 % 0 mm 0.0 W/m2 CLR
06:12 -16.3 °C -17.7 °C 34797.9 hPa Calm     84 % 0 mm 0.0 W/m2 CLR
06:14 -16.3 °C -17.7 °C 34797.9 hPa Calm     84 % 0 mm 0.0 W/m2 CLR
06:19 -16.4 °C -17.7 °C 34808.1 hPa Calm     84 % 0 mm 0.0 W/m2 CLR
06:24 -16.5 °C -17.8 °C 34808.1 hPa Calm     84 % 0 mm 0.0 W/m2 CLR
06:29 -16.5 °C -17.8 °C 34808.1 hPa Calm     85 % 0 mm 0.0 W/m2 CLR
06:34 -16.6 °C -17.9 °C 34808.1 hPa Calm     84 % 0 mm 0.0 W/m2 CLR
06:39 -16.7 °C -17.9 °C 34808.1 hPa Calm     85 % 0 mm 0.0 W/m2 CLR
06:44 -16.7 °C -17.9 °C 34808.1 hPa Calm     86 % 0 mm 0.0 W/m2 CLR
06:49 -16.7 °C -17.9 °C 34808.1 hPa Calm     86 % 0 mm 0.0 W/m2 CLR
06:54 -16.7 °C -17.9 °C 34808.1 hPa Calm     86 % 0 mm 0.0 W/m2 CLR
06:59 -16.8 °C -17.9 °C 34808.1 hPa Calm     86 % 0 mm 0.0 W/m2 CLR
07:04 -16.8 °C -18 °C 34818.2 hPa Calm     86 % 0 mm 0.0 W/m2 OVC
07:09 -16.8 °C -18 °C 34818.2 hPa Calm     86 % 0 mm 0.0 W/m2 OVC
07:14 -16.9 °C -18.1 °C 34818.2 hPa Calm     86 % 0 mm 7.0 W/m2 OVC
07:19 -17 °C -18.2 °C 34818.2 hPa Calm     86 % 0 mm 9.0 W/m2 BKN
07:24 -17 °C -18.1 °C 34818.2 hPa Calm     87 % 0 mm 12.0 W/m2 BKN
07:29 -17 °C -18.1 °C 34818.2 hPa Calm     87 % 0 mm 16.0 W/m2 BKN
07:34 -16.9 °C -18 °C 34831.8 hPa Calm     87 % 0 mm 19.0 W/m2 BKN
07:39 -16.9 °C -18 °C 34831.8 hPa Calm     87 % 0 mm 23.0 W/m2 BKN
07:44 -16.9 °C -17.9 °C 34831.8 hPa Calm     87 % 0 mm 32.0 W/m2 BKN
07:49 -16.8 °C -17.9 °C 34831.8 hPa Calm     87 % 0 mm 42.0 W/m2 BKN
07:54 -16.7 °C -17.8 °C 34831.8 hPa Calm     87 % 0 mm 58.0 W/m2 SCT
07:59 -16.6 °C -17.7 °C 34831.8 hPa Calm     87 % 0 mm 72.0 W/m2 FEW
08:04 -16.5 °C -17.6 °C 34831.8 hPa Calm     87 % 0 mm 76.0 W/m2 FEW
08:09 -16.3 °C -17.5 °C 34841.9 hPa Calm     86 % 0 mm 100.0 W/m2 CLR
08:14 -16.2 °C -17.4 °C 34841.9 hPa Calm     85 % 0 mm 114.0 W/m2 CLR
08:19 -16 °C -17.4 °C 34841.9 hPa Calm     84 % 0 mm 130.0 W/m2 CLR
08:24 -15.9 °C -17.2 °C 34841.9 hPa Calm     84 % 0 mm 146.0 W/m2 CLR
08:29 -15.8 °C -17.3 °C 34831.8 hPa Calm     83 % 0 mm 162.0 W/m2 CLR
08:34 -15.7 °C -17.2 °C 34831.8 hPa Calm     83 % 0 mm 178.0 W/m2 CLR
08:39 -15.5 °C -17.1 °C 34841.9 hPa Calm     82 % 0 mm 197.0 W/m2 CLR
08:44 -15.3 °C -16.9 °C 34841.9 hPa Calm     81 % 0 mm 220.0 W/m2 CLR
08:49 -14.9 °C -16.7 °C 34841.9 hPa Calm     80 % 0 mm 236.0 W/m2 CLR
08:54 -14.7 °C -16.6 °C 34841.9 hPa Calm     79 % 0 mm 253.0 W/m2 CLR
08:59 -14.4 °C -16.4 °C 34841.9 hPa Calm     77 % 0 mm 269.0 W/m2 CLR
09:04 -14.2 °C -16.6 °C 34841.9 hPa Calm     74 % 0 mm 288.0 W/m2 CLR
09:09 -14.1 °C -16.6 °C 34841.9 hPa Calm     73 % 0 mm 58.0 W/m2 CLR
09:14 -13.8 °C -16.5 °C 34841.9 hPa Calm     72 % 0 mm 278.0 W/m2 CLR
09:19 -13.7 °C -16.8 °C 34841.9 hPa Calm     68 % 0 mm 338.0 W/m2 CLR
09:24 -13.6 °C -16.9 °C 34841.9 hPa Calm     66 % 0 mm 352.0 W/m2 CLR
09:29 -13.3 °C -16.8 °C 34841.9 hPa Calm     65 % 0 mm 373.0 W/m2 CLR
09:34 -13.1 °C -16.8 °C 34841.9 hPa Calm     63 % 0 mm 388.0 W/m2 CLR
09:39 -12.8 °C -16.7 °C 34841.9 hPa Calm     61 % 0 mm 404.0 W/m2 CLR
09:44 -12.5 °C -16.6 °C 34841.9 hPa Calm     60 % 0 mm 422.0 W/m2 CLR
09:49 -12.2 °C -16.6 °C 34841.9 hPa Calm     58 % 0 mm 438.0 W/m2 CLR
09:54 -11.9 °C -16.6 °C 34841.9 hPa Calm     56 % 0 mm 455.0 W/m2 CLR
09:59 -11.8 °C -16.6 °C 34841.9 hPa Calm     55 % 0 mm 469.0 W/m2 CLR
10:04 -11.6 °C -16.4 °C 34841.9 hPa Calm     55 % 0 mm 483.0 W/m2 CLR
10:09 -11.3 °C -16.3 °C 34831.8 hPa Calm     54 % 0 mm 504.0 W/m2 CLR
10:14 -11.1 °C -16.4 °C 34831.8 hPa Calm     52 % 0 mm 517.0 W/m2 CLR
10:19 -11 °C -16.3 °C 34831.8 hPa Calm     52 % 0 mm 534.0 W/m2 CLR
10:24 -10.9 °C -16.3 °C 34831.8 hPa NE 6 km/h   52 % 0 mm 548.0 W/m2 CLR
10:29 -10.8 °C -16.3 °C 34831.8 hPa Calm     51 % 0 mm 568.0 W/m2 CLR
10:34 -10.7 °C -16.4 °C 34841.9 hPa Calm     49 % 0 mm 585.0 W/m2 CLR
10:39 -10.5 °C -16.3 °C 34841.9 hPa Calm     49 % 0 mm 592.0 W/m2 CLR
10:44 -10.2 °C -16.1 °C 34831.8 hPa ENE 6 km/h 6 km/h 49 % 0 mm 613.0 W/m2 CLR
10:49 -10 °C -16.3 °C 34831.8 hPa Calm     46 % 0 mm 628.0 W/m2 CLR
10:54 -9.9 °C -16.3 °C 34841.9 hPa Calm     46 % 0 mm 643.0 W/m2 CLR
10:59 -9.8 °C -16.6 °C 34841.9 hPa Calm     44 % 0 mm 657.0 W/m2 CLR
11:04 -9.7 °C -16.8 °C 34831.8 hPa Calm     42 % 0 mm 668.0 W/m2 CLR
11:09 -9.6 °C -17.1 °C 34831.8 hPa Calm     40 % 0 mm 677.0 W/m2 CLR
11:14 -9.3 °C -17.4 °C 34831.8 hPa NE 10.3 km/h 10.3 km/h 37 % 0 mm 689.0 W/m2 CLR
11:19 -9.3 °C -17 °C 34831.8 hPa Calm     39 % 0 mm 701.0 W/m2 CLR
11:24 -9.2 °C -16.9 °C 34831.8 hPa Calm     39 % 0 mm 708.0 W/m2 CLR
11:29 -9 °C -16.9 °C 34831.8 hPa ENE 11.9 km/h 11.9 km/h 38 % 0 mm 721.0 W/m2 CLR
11:34 -9 °C -17.1 °C 34831.8 hPa Calm   0.8 km/h 37 % 0 mm 735.0 W/m2 CLR
11:40 -8.9 °C -17.6 °C 34831.8 hPa ENE 15 km/h 15 km/h 35 % 0 mm 752.0 W/m2 CLR
11:45 -9 °C -18.2 °C 34831.8 hPa ENE 15 km/h   32 % 0 mm 756.0 W/m2 CLR
11:50 -8.8 °C -17.7 °C 34831.8 hPa ENE 9 km/h 9 km/h 34 % 0 mm 766.0 W/m2 CLR
11:55 -8.7 °C -17.8 °C 34831.8 hPa Calm   0.8 km/h 33 % 0 mm 777.0 W/m2 CLR
12:00 -8.7 °C -17.7 °C 34831.8 hPa ESE 18.2 km/h 18.2 km/h 33 % 0 mm 791.0 W/m2 CLR
12:05 -8.6 °C -17.9 °C 34831.8 hPa ENE 11.9 km/h 11.9 km/h 32 % 0 mm 798.0 W/m2 CLR
12:10 -8.4 °C -17.4 °C 34831.8 hPa Calm     33 % 0 mm 810.0 W/m2 CLR
12:15 -8.3 °C -18.1 °C 34818.2 hPa South 15 km/h 15 km/h 30 % 0 mm 816.0 W/m2 CLR
12:20 -8.3 °C -17.9 °C 34818.2 hPa South 3.1 km/h   31 % 0 mm 819.0 W/m2 CLR
12:25 -8.3 °C -17.9 °C 34818.2 hPa ENE 12.9 km/h 12.9 km/h 31 % 0 mm 830.0 W/m2 CLR
12:30 -8.2 °C -18.1 °C 34818.2 hPa West 9 km/h 9 km/h 30 % 0 mm 840.0 W/m2 CLR
12:35 -8.1 °C -18.2 °C 34818.2 hPa SW 18.2 km/h 18.2 km/h 29 % 0 mm 846.0 W/m2 CLR
12:40 -8.1 °C -18.4 °C 34808.1 hPa Calm     28 % 0 mm 853.0 W/m2 CLR
12:45 -7.9 °C -18 °C 34808.1 hPa East 11.9 km/h 11.9 km/h 29 % 0 mm 858.0 W/m2 CLR
12:50 -7.9 °C -18.3 °C 34808.1 hPa East 17.9 km/h 17.9 km/h 28 % 0 mm 865.0 W/m2 CLR
12:55 -7.9 °C -18.3 °C 34808.1 hPa SE 23.3 km/h 23.3 km/h 28 % 0 mm 872.0 W/m2 CLR
13:00 -8 °C -18.7 °C 34808.1 hPa ENE 9 km/h 9 km/h 27 % 0 mm 874.0 W/m2 CLR
13:05 -7.9 °C -18.4 °C 34808.1 hPa ENE 11.9 km/h 11.9 km/h 28 % 0 mm 879.0 W/m2 CLR
13:10 -7.8 °C -18.6 °C 34808.1 hPa East 26.9 km/h 26.9 km/h 27 % 0 mm 881.0 W/m2 CLR
13:15 -7.7 °C -19.1 °C 34797.9 hPa ENE 20.9 km/h 20.9 km/h 25 % 0 mm 882.0 W/m2 CLR
13:20 -7.6 °C -19.2 °C 34797.9 hPa ENE 9 km/h 9 km/h 24 % 0 mm 872.0 W/m2 CLR
13:25 -7.4 °C -19.1 °C 34797.9 hPa SE 29.8 km/h 29.8 km/h 24 % 0 mm 893.0 W/m2 CLR
13:30 -7.6 °C -18.8 °C 34797.9 hPa ESE 35.7 km/h 35.7 km/h 25 % 0 mm 900.0 W/m2 CLR
13:35 -7.4 °C -19.1 °C 34797.9 hPa ESE 26.9 km/h 26.9 km/h 24 % 0 mm 891.0 W/m2 CLR
13:40 -7.4 °C -18.7 °C 34797.9 hPa ESE 26.9 km/h 26.9 km/h 25 % 0 mm 896.0 W/m2 CLR
13:45 -7.4 °C -18.8 °C 34797.9 hPa SE 35.7 km/h 35.7 km/h 25 % 0 mm 904.0 W/m2 CLR
13:50 -7.4 °C -18.8 °C 34797.9 hPa ESE 23.3 km/h 23.3 km/h 25 % 0 mm 904.0 W/m2 CLR
13:55 -7.4 °C -18.8 °C 34784.4 hPa East 15 km/h 15 km/h 25 % 0 mm 904.0 W/m2 CLR
14:00 -7.4 °C -18.8 °C 34784.4 hPa SE 23.8 km/h 23.8 km/h 25 % 0 mm 905.0 W/m2 CLR
14:05 -7.4 °C -18.4 °C 34784.4 hPa ESE 41.7 km/h 41.7 km/h 26 % 0 mm 905.0 W/m2 CLR
14:10 -7.3 °C -18.7 °C 34784.4 hPa ENE 26.9 km/h 26.9 km/h 25 % 0 mm 904.0 W/m2 CLR
14:15 -7.4 °C -18.4 °C 34784.4 hPa ESE 23.3 km/h 23.3 km/h 26 % 0 mm 904.0 W/m2 CLR
14:20 -7.4 °C -18.2 °C 34784.4 hPa SE 32.8 km/h 32.8 km/h 27 % 0 mm 898.0 W/m2 CLR
14:25 -7.4 °C -17.9 °C 34774.2 hPa ESE 23.8 km/h 23.8 km/h 28 % 0 mm 896.0 W/m2 CLR
14:30 -7.3 °C -17.6 °C 34774.2 hPa SSE 31.1 km/h 31.1 km/h 29 % 0 mm 893.0 W/m2 CLR
14:35 -7.5 °C -17.4 °C 34774.2 hPa ESE 35.7 km/h 35.7 km/h 30 % 0 mm 889.0 W/m2 CLR
14:40 -7.4 °C -17.2 °C 34774.2 hPa SE 32.8 km/h 32.8 km/h 31 % 0 mm 886.0 W/m2 CLR
14:45 -7.4 °C -16.9 °C 34774.2 hPa ESE 29.8 km/h 29.8 km/h 32 % 0 mm 881.0 W/m2 CLR
14:50 -7.4 °C -16.6 °C 34774.2 hPa ESE 41.4 km/h 41.4 km/h 33 % 0 mm 879.0 W/m2 CLR
14:55 -7.4 °C -16.7 °C 34774.2 hPa South 20.9 km/h 20.9 km/h 33 % 0 mm 875.0 W/m2 CLR
15:00 -7.4 °C -16.7 °C 34774.2 hPa ESE 50.7 km/h 50.7 km/h 33 % 0 mm 863.0 W/m2 CLR
15:05 -7.6 °C -16.5 °C 34774.2 hPa ESE 23.8 km/h 23.8 km/h 34 % 0 mm 858.0 W/m2 CLR
15:10 -7.4 °C -16 °C 34774.2 hPa SSE 32.8 km/h 32.8 km/h 36 % 0 mm 854.0 W/m2 CLR
15:12 -7.3 °C -15.9 °C 34774.2 hPa East 41.7 km/h 41.7 km/h 36 % 0 mm 849.0 W/m2 CLR
15:17 -7.4 °C -15.9 °C 34774.2 hPa East 38.8 km/h 38.8 km/h 36 % 0 mm 842.0 W/m2 CLR
15:22 -7.4 °C -16 °C 34774.2 hPa East 35.7 km/h 35.7 km/h 36 % 0 mm 838.0 W/m2 CLR
15:27 -7.4 °C -15.6 °C 34760.7 hPa East 29.8 km/h 29.8 km/h 38 % 0 mm 837.0 W/m2 CLR
15:32 -7.6 °C -15.8 °C 34760.7 hPa ESE 35.7 km/h 35.7 km/h 37 % 0 mm 824.0 W/m2 CLR
15:37 -7.4 °C -15.6 °C 34760.7 hPa ESE 44.1 km/h 44.1 km/h 38 % 0 mm 817.0 W/m2 CLR
15:42 -7.6 °C -16.1 °C 34760.7 hPa ESE 38.8 km/h 38.8 km/h 36 % 0 mm 810.0 W/m2 CLR
15:47 -7.4 °C -15.8 °C 34760.7 hPa ESE 38.8 km/h 38.8 km/h 37 % 0 mm 802.0 W/m2 CLR
15:52 -7.4 °C -15.6 °C 34750.5 hPa SE 26.9 km/h 26.9 km/h 38 % 0 mm 793.0 W/m2 CLR
15:57 -7.6 °C -15.8 °C 34750.5 hPa East 35.7 km/h 35.7 km/h 37 % 0 mm 784.0 W/m2 CLR
16:02 -7.6 °C -15.9 °C 34750.5 hPa SE 41.4 km/h 41.4 km/h 37 % 0 mm 773.0 W/m2 CLR
16:07 -7.6 °C -15.9 °C 34750.5 hPa SE 38.8 km/h 38.8 km/h 37 % 0 mm 766.0 W/m2 CLR
16:12 -7.5 °C -15.8 °C 34750.5 hPa SE 41.7 km/h 41.7 km/h 37 % 0 mm 761.0 W/m2 CLR
16:17 -7.7 °C -15.9 °C 34750.5 hPa ESE 44.7 km/h 44.7 km/h 37 % 0 mm 744.0 W/m2 CLR
16:22 -7.6 °C -15.9 °C 34750.5 hPa SE 41.7 km/h 41.7 km/h 37 % 0 mm 729.0 W/m2 CLR
16:27 -7.4 °C -15.8 °C 34750.5 hPa SE 38.8 km/h 38.8 km/h 37 % 0 mm 724.0 W/m2 CLR
16:32 -7.4 °C -16.2 °C 34750.5 hPa ESE 44.1 km/h 44.1 km/h 35 % 0 mm 714.0 W/m2 CLR
16:42 -7.6 °C -16.2 °C 34750.5 hPa SSE 41.7 km/h 41.7 km/h 36 % 0 mm 689.0 W/m2 CLR
16:47 -7.6 °C -15.9 °C 34750.5 hPa SE 41.7 km/h 41.7 km/h 37 % 0 mm 680.0 W/m2 CLR
16:52 -7.6 °C -16.2 °C 34750.5 hPa ESE 49.2 km/h 49.2 km/h 36 % 0 mm 671.0 W/m2 CLR
16:57 -7.8 °C -16.1 °C 34750.5 hPa SE 35.7 km/h 35.7 km/h 37 % 0 mm 657.0 W/m2 CLR
17:02 -7.8 °C -16.1 °C 34750.5 hPa East 41.7 km/h 41.7 km/h 37 % 0 mm 642.0 W/m2 CLR
17:07 -7.9 °C -16 °C 34750.5 hPa SE 53.6 km/h 53.6 km/h 38 % 0 mm 629.0 W/m2 CLR
17:12 -7.9 °C -15.8 °C 34740.4 hPa East 35.7 km/h 35.7 km/h 39 % 0 mm 613.0 W/m2 CLR
17:17 -7.7 °C -15.6 °C 34740.4 hPa ESE 33.6 km/h 33.6 km/h 39 % 0 mm 601.0 W/m2 CLR
17:22 -7.8 °C -15.7 °C 34750.5 hPa SE 41.7 km/h 41.7 km/h 39 % 0 mm 587.0 W/m2 CLR
17:27 -7.9 °C -15.5 °C 34740.4 hPa ESE 47.6 km/h 47.6 km/h 40 % 0 mm 570.0 W/m2 CLR
17:32 -8.1 °C -15.7 °C 34750.5 hPa SE 50.7 km/h 50.7 km/h 40 % 0 mm 557.0 W/m2 CLR
17:37 -8.1 °C -15.5 °C 34750.5 hPa SE 35.7 km/h 35.7 km/h 41 % 0 mm 543.0 W/m2 CLR
17:42 -8 °C -15.7 °C 34750.5 hPa SE 59.5 km/h 59.5 km/h 40 % 0 mm 529.0 W/m2 CLR
17:47 -8.2 °C -15.7 °C 34750.5 hPa ESE 41.7 km/h 41.7 km/h 41 % 0 mm 512.0 W/m2 CLR
17:52 -8.2 °C -15.6 °C 34750.5 hPa ESE 46.7 km/h 46.7 km/h 41 % 0 mm 496.0 W/m2 CLR
17:53 -8.2 °C -15.6 °C 34750.5 hPa ESE 47.6 km/h 47.6 km/h 41 % 0 mm 496.0 W/m2 CLR
17:58 -8.3 °C -15.7 °C 34750.5 hPa SE 47.6 km/h 47.6 km/h 41 % 0 mm 478.0 W/m2 CLR
18:03 -8.2 °C -15.9 °C 34750.5 hPa ESE 47.6 km/h 47.6 km/h 40 % 0 mm 462.0 W/m2 CLR
18:08 -8.2 °C -15.8 °C 34750.5 hPa SE 53.6 km/h 53.6 km/h 40 % 0 mm 448.0 W/m2 CLR
18:13 -8.1 °C -15.9 °C 34750.5 hPa ESE 36.2 km/h 36.2 km/h 39 % 0 mm 432.0 W/m2 CLR
18:18 -8.3 °C -16.1 °C 34750.5 hPa SE 32.8 km/h 32.8 km/h 39 % 0 mm 418.0 W/m2 CLR
18:23 -8.2 °C -16.1 °C 34750.5 hPa SSE 47.6 km/h 47.6 km/h 39 % 0 mm 401.0 W/m2 CLR
18:28 -8.2 °C -16.2 °C 34750.5 hPa SE 47.6 km/h 47.6 km/h 38 % 0 mm 383.0 W/m2 CLR
18:33 -8.3 °C -16.1 °C 34750.5 hPa SE 32.8 km/h 32.8 km/h 39 % 0 mm 369.0 W/m2 CLR
18:38 -8.2 °C -16.3 °C 34750.5 hPa SE 44.7 km/h 44.7 km/h 38 % 0 mm 352.0 W/m2 CLR
18:43 -8.3 °C -16.3 °C 34750.5 hPa SSE 38.8 km/h 38.8 km/h 38 % 0 mm 332.0 W/m2 CLR
18:48 -8.3 °C -16.3 °C 34760.7 hPa SSE 36.2 km/h 36.2 km/h 38 % 0 mm 318.0 W/m2 CLR
18:53 -8.3 °C -16.3 °C 34760.7 hPa SE 44.7 km/h 44.7 km/h 38 % 0 mm 301.0 W/m2 CLR
18:58 -8.3 °C -16.3 °C 34760.7 hPa SE 29.8 km/h 29.8 km/h 38 % 0 mm 285.0 W/m2 CLR
19:03 -8.4 °C -16.4 °C 34760.7 hPa SSE 32.8 km/h 32.8 km/h 38 % 0 mm 267.0 W/m2 CLR
19:08 -8.4 °C -16.6 °C 34760.7 hPa SSE 35.7 km/h 35.7 km/h 37 % 0 mm 250.0 W/m2 CLR
19:13 -8.4 °C -16.6 °C 34760.7 hPa SE 38.8 km/h 38.8 km/h 37 % 0 mm 234.0 W/m2 CLR
19:18 -8.4 °C -16.6 °C 34760.7 hPa SSE 26.9 km/h 26.9 km/h 37 % 0 mm 214.0 W/m2 CLR
19:23 -8.4 °C -16.6 °C 34760.7 hPa SSW 29.8 km/h 29.8 km/h 37 % 0 mm 197.0 W/m2 CLR
19:28 -8.4 °C -17.1 °C 34760.7 hPa SE 32.8 km/h 32.8 km/h 35 % 0 mm 176.0 W/m2 CLR
19:33 -8.5 °C -17.4 °C 34750.5 hPa SE 31.1 km/h 31.1 km/h 34 % 0 mm 156.0 W/m2 CLR
19:38 -8.6 °C -17.6 °C 34760.7 hPa SSE 32.8 km/h 32.8 km/h 33 % 0 mm 139.0 W/m2 CLR
19:43 -8.6 °C -17.6 °C 34760.7 hPa SSE 23.3 km/h 23.3 km/h 33 % 0 mm 121.0 W/m2 CLR
19:48 -8.7 °C -17.7 °C 34760.7 hPa South 35.7 km/h 35.7 km/h 33 % 0 mm 102.0 W/m2 CLR
19:53 -8.7 °C -18 °C 34760.7 hPa SSE 26.9 km/h 26.9 km/h 32 % 0 mm 86.0 W/m2 CLR
19:58 -8.8 °C -18.1 °C 34760.7 hPa SSE 31.1 km/h 31.1 km/h 32 % 0 mm 72.0 W/m2 FEW
20:03 -8.9 °C -17.9 °C 34760.7 hPa SSE 29.8 km/h 29.8 km/h 33 % 0 mm 46.0 W/m2 SCT
20:08 -8.9 °C -18 °C 34760.7 hPa SSE 23.8 km/h 23.8 km/h 33 % 0 mm 44.0 W/m2 BKN
20:14 -9 °C -18 °C 34760.7 hPa South 20.8 km/h 20.8 km/h 33 % 0 mm 33.0 W/m2 BKN
20:19 -9 °C -18.1 °C 34760.7 hPa SSE 29.8 km/h 29.8 km/h 33 % 0 mm 23.0 W/m2 BKN
20:24 -9.1 °C -18.1 °C 34760.7 hPa SSE 20.9 km/h 20.9 km/h 33 % 0 mm 16.0 W/m2 BKN
20:29 -9.2 °C -18.2 °C 34760.7 hPa SSE 20.9 km/h 20.9 km/h 33 % 0 mm 12.0 W/m2 BKN
20:34 -9.3 °C -18.5 °C 34760.7 hPa SSE 29.8 km/h 29.8 km/h 32 % 0 mm 11.0 W/m2 BKN
20:39 -9.4 °C -18.4 °C 34760.7 hPa SSE 23.8 km/h 23.8 km/h 33 % 0 mm 9.0 W/m2 BKN
20:44 -9.5 °C -18.4 °C 34760.7 hPa SE 23.8 km/h 23.8 km/h 33 % 0 mm 5.0 W/m2 BKN
20:49 -9.6 °C -18.5 °C 34760.7 hPa SSE 15 km/h 15 km/h 33 % 0 mm 0.0 W/m2 OVC
20:54 -9.7 °C -18.6 °C 34774.2 hPa SSE 15 km/h 15 km/h 33 % 0 mm 0.0 W/m2 OVC
20:59 -9.8 °C -18.5 °C 34774.2 hPa SSE 15 km/h 15 km/h 34 % 0 mm 0.0 W/m2 CLR
21:04 -9.9 °C -18.2 °C 34774.2 hPa SSE 20.9 km/h 20.9 km/h 36 % 0 mm 0.0 W/m2 CLR
21:09 -10 °C -17.8 °C 34774.2 hPa SSE 20.9 km/h 20.9 km/h 38 % 0 mm 0.0 W/m2 CLR
21:14 -10.2 °C -17.8 °C 34774.2 hPa SSE 20.9 km/h 20.9 km/h 39 % 0 mm 0.0 W/m2 CLR
21:19 -10.3 °C -17.7 °C 34774.2 hPa SE 15 km/h 15 km/h 40 % 0 mm 0.0 W/m2 CLR
21:24 -10.4 °C -17.6 °C 34784.4 hPa SE 20.9 km/h 20.9 km/h 41 % 0 mm 0.0 W/m2 CLR
21:29 -10.5 °C -17.7 °C 34784.4 hPa SSE 17.9 km/h 17.9 km/h 41 % 0 mm 0.0 W/m2 CLR
21:34 -10.6 °C -17.8 °C 34784.4 hPa SE 15 km/h 15 km/h 41 % 0 mm 0.0 W/m2 CLR
21:39 -10.7 °C -17.7 °C 34784.4 hPa SSE 15.6 km/h 15.6 km/h 42 % 0 mm 0.0 W/m2 CLR
21:44 -10.7 °C -17.7 °C 34784.4 hPa SE 11.9 km/h 11.9 km/h 42 % 0 mm 0.0 W/m2 CLR
21:49 -10.8 °C -17.8 °C 34784.4 hPa SSE 17.9 km/h 17.9 km/h 42 % 0 mm 0.0 W/m2 CLR
21:54 -10.8 °C -17.8 °C 34784.4 hPa SE 15 km/h 15 km/h 42 % 0 mm 0.0 W/m2 CLR
21:55 -10.8 °C -17.8 °C 34784.4 hPa SE 15 km/h 15 km/h 42 % 0 mm 0.0 W/m2 CLR
22:00 -10.9 °C -17.8 °C 34797.9 hPa SSE 9 km/h 9 km/h 42 % 0 mm 0.0 W/m2 CLR
22:05 -10.9 °C -17.9 °C 34797.9 hPa SE 11.9 km/h 11.9 km/h 42 % 0 mm 0.0 W/m2 CLR
22:10 -11 °C -17.8 °C 34797.9 hPa SSE 9 km/h 9 km/h 43 % 0 mm 0.0 W/m2 CLR
22:15 -11.1 °C -17.9 °C 34808.1 hPa Calm     43 % 0 mm 0.0 W/m2 CLR
22:20 -11.2 °C -17.9 °C 34808.1 hPa Calm     43 % 0 mm 0.0 W/m2 CLR
22:25 -11.3 °C -17.9 °C 34808.1 hPa Calm     44 % 0 mm 0.0 W/m2 CLR
22:30 -11.5 °C -17.9 °C 34808.1 hPa Calm     45 % 0 mm 0.0 W/m2 CLR
22:35 -11.7 °C -17.9 °C 34808.1 hPa Calm     46 % 0 mm 0.0 W/m2 CLR
22:40 -11.7 °C -17.7 °C 34808.1 hPa Calm     47 % 0 mm 0.0 W/m2 CLR
22:45 -11.7 °C -17.8 °C 34808.1 hPa Calm     47 % 0 mm 0.0 W/m2 CLR
22:50 -11.8 °C -17.8 °C 34808.1 hPa Calm     47 % 0 mm 0.0 W/m2 CLR
22:55 -11.9 °C -17.9 °C 34808.1 hPa Calm     47 % 0 mm 0.0 W/m2 CLR
23:00 -12.1 °C -17.9 °C 34808.1 hPa Calm     48 % 0 mm 0.0 W/m2 CLR
23:05 -12.2 °C -18 °C 34808.1 hPa Calm     48 % 0 mm 0.0 W/m2 CLR
23:10 -12.3 °C -18 °C 34808.1 hPa Calm     49 % 0 mm 0.0 W/m2 CLR
23:15 -12.4 °C -17.9 °C 34808.1 hPa Calm     50 % 0 mm 0.0 W/m2 CLR
23:20 -12.6 °C -17.9 °C 34808.1 hPa Calm     51 % 0 mm 0.0 W/m2 CLR
23:25 -12.8 °C -18.1 °C 34808.1 hPa Calm     51 % 0 mm 0.0 W/m2 CLR
23:30 -12.9 °C -18.2 °C 34808.1 hPa Calm     52 % 0 mm 0.0 W/m2 CLR
23:35 -13.2 °C -18.2 °C 34808.1 hPa Calm     53 % 0 mm 0.0 W/m2 CLR
23:40 -13.3 °C -18 °C 34818.2 hPa Calm     55 % 0 mm 0.0 W/m2 CLR
23:45 -13.2 °C -17.9 °C 34818.2 hPa Calm     55 % 0 mm 0.0 W/m2 CLR
23:50 -13.3 °C -18 °C 34818.2 hPa Calm     55 % 0 mm 0.0 W/m2 CLR
23:55 -13.3 °C -17.9 °C 34818.2 hPa Calm     56 % 0 mm 0.0 W/m2 CLR
Lo Temps de Massalio
Compliments of Weather Underground - 1.25 mb